Date String (YYYY-MM-DD hh:mm:ss) UTC,Instrument flags,Ambient pressure (hPa),Sample flow (lpm),Bypass flow (lpm),Sample temperature (°C),Ambient temperature (°C),ASC tube jacket temperature (°C),LED temperature (°C),Box temperature (°C),Sample RH (%),Span deviation,Mass concentration (μg/m³),Mass concentration (μg/m³),Mass concentration (μg/m³)
DateTimeUTC,F1_M11,P_M11,Q1_M11,Q2_M11,T1_M11,T2_M11,T3_M11,T4_M11,T5_M11,U1_M11,ZSPAN_M11,X0_M11,X2_M11,X1_M11
2023-05-26 15:00:00,,0830.8,5.01,0.00,29.0,27.5,00.0,37.3,30.7,31.2,0001.3,0012.76,0008.36,0007.77
2023-05-26 15:01:00,,0830.8,5.00,0.00,29.1,27.6,00.0,37.4,30.7,31.2,0001.3,0012.75,0008.35,0007.76
2023-05-26 15:02:00,,0830.8,4.99,0.00,29.1,27.6,00.0,37.4,30.7,31.3,0001.4,0012.70,0008.34,0007.76
2023-05-26 15:03:00,,0830.8,4.99,0.00,29.1,27.6,00.0,37.4,30.7,31.3,0001.4,0012.78,0008.34,0007.75
2023-05-26 15:04:00,,0830.8,5.00,0.00,29.1,27.6,00.0,37.4,30.7,31.4,0001.4,0012.79,0008.31,0007.73
2023-05-26 15:05:00,,0830.8,5.01,0.00,29.1,27.6,00.0,37.4,30.7,31.4,0001.4,0013.45,0008.30,0007.71
2023-05-26 15:06:00,,0830.8,5.00,0.00,29.1,27.6,00.0,37.4,30.7,31.2,0001.6,0013.44,0008.27,0007.69
2023-05-26 15:07:00,,0830.8,4.99,0.00,29.1,27.6,00.0,37.4,30.8,30.9,0001.7,0013.41,0008.22,0007.66
2023-05-26 15:08:00,,0830.9,5.00,0.00,29.1,27.6,00.0,37.4,30.8,30.9,0001.8,0013.39,0008.16,0007.61
2023-05-26 15:09:00,,0830.9,4.99,0.00,29.1,27.6,00.0,37.4,30.8,31.1,0001.9,0013.23,0008.08,0007.55
2023-05-26 15:10:00,,0830.8,5.00,0.00,29.1,27.6,00.0,37.4,30.8,31.3,0001.9,0013.06,0008.04,0007.50
2023-05-26 15:11:00,,0830.8,4.99,0.00,29.1,27.7,00.0,37.4,30.8,31.8,0001.8,0012.68,0007.97,0007.46
2023-05-26 15:12:00,,0830.8,5.00,0.00,29.2,27.7,00.0,37.5,30.8,31.5,0001.8,0012.82,0007.92,0007.43
2023-05-26 15:13:00,,0830.8,5.00,0.00,29.2,27.7,00.0,37.5,30.8,31.1,0001.8,0012.87,0007.91,0007.40
2023-05-26 15:14:00,,0830.8,5.00,0.00,29.2,27.7,00.0,37.5,30.8,31.2,0001.7,0012.89,0007.88,0007.37
2023-05-26 15:15:00,,0830.8,5.00,0.00,29.2,27.7,00.0,37.5,30.8,30.9,0001.4,0012.94,0007.85,0007.35
2023-05-26 15:16:00,,0830.9,5.00,0.00,29.2,27.7,00.0,37.5,30.9,30.7,0001.4,0012.40,0007.82,0007.31
2023-05-26 15:17:00,,0830.9,5.00,0.00,29.2,27.8,00.0,37.5,30.9,30.4,0001.3,0012.33,0007.79,0007.28
2023-05-26 15:18:00,,0830.8,5.00,0.00,29.2,27.8,00.0,37.5,30.9,30.3,0001.2,0012.40,0007.79,0007.23
2023-05-26 15:19:00,,0830.8,5.00,0.00,29.2,27.8,00.0,37.5,30.9,30.1,0001.2,0012.49,0007.78,0007.20
2023-05-26 15:20:00,,0830.8,5.00,0.00,29.3,27.8,00.0,37.5,30.9,30.7,0000.9,0012.53,0007.77,0007.19
2023-05-26 15:21:00,,0830.9,5.00,0.00,29.3,27.8,00.0,37.5,30.9,31.0,0000.9,0012.55,0007.76,0007.16
2023-05-26 15:22:00,,0830.8,5.00,0.00,29.3,27.8,00.0,37.6,30.9,31.0,0000.8,0012.45,0007.77,0007.15
2023-05-26 15:23:00,,0830.9,5.00,0.00,29.3,27.8,00.0,37.6,30.9,30.5,0000.9,0011.99,0007.75,0007.13
2023-05-26 15:24:00,,0830.9,5.00,0.00,29.3,27.9,00.0,37.6,31.0,30.4,0000.8,0011.89,0007.74,0007.13
2023-05-26 15:25:00,,0830.9,5.00,0.00,29.3,27.9,00.0,37.6,31.0,30.2,0000.6,0012.06,0007.77,0007.16
2023-05-26 15:26:00,,0831.0,5.00,0.00,29.3,27.9,00.0,37.6,31.0,30.3,0000.4,0012.66,0007.82,0007.19
2023-05-26 15:27:00,,0830.9,4.99,0.00,29.3,27.9,00.0,37.6,31.0,30.4,0000.4,0012.66,0007.81,0007.20
2023-05-26 15:28:00,,0830.9,5.00,0.00,29.3,27.9,00.0,37.6,31.0,30.4,0000.5,0012.95,0007.85,0007.22
2023-05-26 15:29:00,,0831.0,5.00,0.00,29.4,27.9,00.0,37.6,31.0,30.3,0000.8,0013.52,0007.90,0007.28
2023-05-26 15:30:00,,0831.1,5.01,0.00,29.4,27.9,00.0,37.7,31.0,30.6,0000.9,0013.51,0007.94,0007.31
2023-05-26 15:31:00,,0831.1,5.00,0.00,29.4,27.9,00.0,37.7,31.0,30.8,0001.1,0013.60,0007.99,0007.34
2023-05-26 15:32:00,,0831.1,5.00,0.00,29.4,27.9,00.0,37.7,31.0,30.8,0001.2,0013.90,0008.06,0007.41
2023-05-26 15:33:00,,0831.2,5.00,0.00,29.4,27.9,00.0,37.7,31.0,30.6,0001.2,0014.15,0008.09,0007.47
2023-05-26 15:34:00,,0831.1,5.00,0.00,29.4,27.9,00.0,37.7,31.0,30.5,0001.2,0014.19,0008.16,0007.53
2023-05-26 15:35:00,,0831.1,5.00,0.00,29.4,27.9,00.0,37.7,31.0,30.2,0001.3,0014.35,0008.23,0007.58
2023-05-26 15:36:00,,0831.1,5.00,0.00,29.4,27.9,00.0,37.7,31.0,30.2,0001.3,0014.23,0008.26,0007.61
2023-05-26 15:37:00,,0831.1,5.00,0.00,29.4,27.9,00.0,37.7,31.0,30.5,0001.7,0013.60,0008.27,0007.64
2023-05-26 15:38:00,,0831.1,5.00,0.00,29.4,27.9,00.0,37.7,31.0,30.7,0001.9,0013.38,0008.30,0007.68
2023-05-26 15:39:00,,0831.1,5.00,0.00,29.4,27.9,00.0,37.7,31.0,30.6,0001.9,0013.27,0008.31,0007.69
2023-05-26 15:40:00,,0831.1,5.00,0.00,29.4,27.9,00.0,37.7,31.0,30.5,0001.7,0013.18,0008.31,0007.70
2023-05-26 15:41:00,,0831.1,5.01,0.00,29.4,27.9,00.0,37.7,31.0,30.6,0001.6,0013.84,0008.32,0007.71
2023-05-26 15:42:00,,0831.1,5.00,0.00,29.4,27.9,00.0,37.7,31.1,30.8,0001.6,0013.95,0008.32,0007.72
2023-05-26 15:43:00,,0831.1,5.00,0.00,29.4,27.9,00.0,37.8,31.1,31.2,0001.4,0013.81,0008.26,0007.70
2023-05-26 15:44:00,,0831.1,5.00,0.00,29.5,27.9,00.0,37.8,31.1,30.9,0001.7,0013.35,0008.27,0007.69
2023-05-26 15:45:00,,0831.1,5.00,0.00,29.5,27.9,00.0,37.8,31.1,30.2,0001.8,0013.37,0008.24,0007.65
2023-05-26 15:46:00,,0831.0,4.99,0.00,29.5,27.9,00.0,37.8,31.1,30.4,0001.8,0013.40,0008.22,0007.63
2023-05-26 15:47:00,,0831.0,5.00,0.00,29.5,28.0,00.0,37.8,31.1,30.2,0001.9,0013.86,0008.20,0007.59
2023-05-26 15:48:00,,0831.1,5.00,0.00,29.5,28.0,00.0,37.8,31.1,29.9,0001.6,0014.31,0008.18,0007.56
2023-05-26 15:49:00,,0831.1,5.00,0.00,29.5,28.0,00.0,37.8,31.1,29.9,0001.5,0014.29,0008.15,0007.52
2023-05-26 15:50:00,,0831.1,5.00,0.00,29.5,28.0,00.0,37.8,31.1,30.0,0001.5,0014.32,0008.14,0007.50
2023-05-26 15:51:00,,0831.1,5.00,0.00,29.5,28.0,00.0,37.8,31.1,30.5,0001.5,0013.91,0008.09,0007.46
2023-05-26 15:52:00,,0831.1,5.00,0.00,29.5,28.0,00.0,37.8,31.1,30.3,0001.6,0013.13,0008.02,0007.40
2023-05-26 15:53:00,,0831.1,4.99,0.00,29.5,28.0,00.0,37.8,31.1,29.9,0001.3,0012.53,0007.96,0007.36
2023-05-26 15:54:00,,0831.1,5.00,0.00,29.5,28.0,00.0,37.8,31.2,29.8,0001.3,0013.24,0007.95,0007.32
2023-05-26 15:55:00,,0831.1,5.00,0.00,29.5,28.0,00.0,37.8,31.2,29.8,0001.0,0013.53,0007.91,0007.30
2023-05-26 15:56:00,,0831.1,5.01,0.00,29.5,28.1,00.0,37.9,31.2,29.7,0000.7,0013.58,0007.94,0007.29
2023-05-26 15:57:00,,0831.0,5.01,0.00,29.6,28.1,00.0,37.9,31.2,29.8,0000.5,0013.74,0007.94,0007.28
2023-05-26 15:58:00,,0831.1,5.01,0.00,29.6,28.1,00.0,37.9,31.2,29.9,0000.6,0013.88,0007.90,0007.26
2023-05-26 15:59:00,,0831.0,4.99,0.00,29.6,28.1,00.0,37.9,31.2,29.8,0001.0,0013.57,0007.86,0007.23
